H1 CPF 2 NER 2022 1 22 9 022 01 glonass129 H2 1106402 9129 37868 2022 1 22 0 0 0 2022 1 25 23 45 0 900 1 1 0 0 0 1 H9 10 0 59601 0.00000 0 25146993.867 3803815.185 2317855.723 10 0 59601 900.00000 0 24683392.224 3619315.270 5480491.868 10 0 59601 1800.00000 0 23825625.251 3467113.106 8537088.662 10 0 59601 2700.00000 0 22594517.491 3399971.900 11428566.662 10 0 59601 3600.00000 0 21023087.931 3465828.009 14099069.231 10 0 59601 4500.00000 0 19155266.301 3705552.079 16497024.684 10 0 59601 5400.00000 0 17044176.043 4151013.621 18576125.119 10 0 59601 6300.00000 0 14750054.857 4823529.441 20296204.791 10 0 59601 7200.00000 0 12337898.127 5732760.421 21624002.545 10 0 59601 8100.00000 0 9874921.469 6876102.944 22533795.171 10 0 59601 9000.00000 0 7427945.686 8238601.005 23007890.545 10 0 59601 9900.00000 0 5060810.557 9793384.021 23036971.726 10 0 59601 10800.00000 0 2831922.609 11502614.003 22620285.519 10 0 59601 11700.00000 0 792036.765 13318905.046 21765671.394 10 0 59601 12600.00000 0 -1017637.351 15187158.657 20489429.134 10 0 59601 13500.00000 0 -2566926.671 17046741.174 18816026.216 10 0 59601 14400.00000 0 -3837721.653 18833914.994 16777648.575 10 0 59601 15300.00000 0 -4824495.845 20484424.111 14413601.285 10 0 59601 16200.00000 0 -5534295.618 21936127.276 11769568.529 10 0 59601 17100.00000 0 -5986199.503 23131569.085 8896745.158 10 0 59601 18000.00000 0 -6210268.743 24020380.850 5850855.103 10 0 59601 18900.00000 0 -6246032.373 24561409.292 2691074.584 10 0 59601 19800.00000 0 -6140570.193 24724481.757 -521119.424 10 0 59601 20700.00000 0 -5946274.633 24491731.305 -3723152.743 10 0 59601 21600.00000 0 -5718386.878 23858423.418 -6852585.316 10 0 59601 22500.00000 0 -5512412.879 22833247.068 -9848344.883 10 0 59601 23400.00000 0 -5381530.608 21438055.828 -12651937.131 10 0 59601 24300.00000 0 -5374100.719 19707068.461 -15208606.741 10 0 59601 25200.00000 0 -5531388.567 17685561.762 -17468424.724 10 0 59601 26100.00000 0 -5885596.510 15428110.568 -19387278.993 10 0 59601 27000.00000 0 -6458291.997 12996449.342 -20927747.386 10 0 59601 27900.00000 0 -7259299.690 10457046.004 -22059835.131 10 0 59601 28800.00000 0 -8286105.655 7878490.978 -22761561.778 10 0 59601 29700.00000 0 -9523799.404 5328811.948 -23019386.172 10 0 59601 30600.00000 0 -10945556.320 2872827.566 -22828461.602 10 0 59601 31500.00000 0 -12513639.683 569651.330 -22192716.959 10 0 59601 32400.00000 0 -14180879.353 -1529550.292 -21124763.438 10 0 59601 33300.00000 0 -15892563.950 -3383452.656 -19645629.874 10 0 59601 34200.00000 0 -17588665.916 -4962042.990 -17784333.284 10 0 59601 35100.00000 0 -19206305.087 -6247606.518 -15577294.355 10 0 59601 36000.00000 0 -20682346.650 -7235190.160 -13067610.591 10 0 59601 36900.00000 0 -21956024.030 -7932527.458 -10304202.503 10 0 59601 37800.00000 0 -22971476.745 -8359431.151 -7340850.515 10 0 59601 38700.00000 0 -23680097.194 -8546682.057 -4235142.107 10 0 59601 39600.00000 0 -24042588.806 -8534463.755 -1047350.315 10 0 59601 40500.00000 0 -24030650.446 -8370411.271 2160734.325 10 0 59601 41400.00000 0 -23628217.882 -8107357.641 5326995.827 10 0 59601 42300.00000 0 -22832211.761 -7800874.207 8390185.912 10 0 59601 43200.00000 0 -21652762.101 -7506708.593 11291095.967 10 0 59601 44100.00000 0 -20112900.997 -7278227.919 13973686.153 10 0 59601 45000.00000 0 -18247736.848 -7163974.068 16386151.102 10 0 59601 45900.00000 0 -16103144.697 -7205432.815 18481903.207 10 0 59601 46800.00000 0 -13734026.789 -7435109.407 20220456.265 10 0 59601 47700.00000 0 -11202214.418 -7874990.418 21568193.920 10 0 59601 48600.00000 0 -8574096.606 -8535455.851 22499009.635 10 0 59601 49500.00000 0 -5918071.881 -9414687.088 22994806.982 10 0 59601 50400.00000 0 -3301926.607 -10498596.136 23045851.269 10 0 59601 51300.00000 0 -790246.187 -11761280.516 22650965.928 10 0 59601 52200.00000 0 1558035.731 -13165986.785 21817569.383 10 0 59601 53100.00000 0 3691850.035 -14666544.839 20561550.687 10 0 59601 54000.00000 0 5569876.350 -16209215.715 18906984.748 10 0 59601 54900.00000 0 7162020.963 -17734878.254 16885690.696 10 0 59601 55800.00000 0 8450426.863 -19181465.394 14536639.736 10 0 59601 56700.00000 0 9429973.303 -20486549.757 11905221.776 10 0 59601 57600.00000 0 10108243.087 -21589971.070 9042382.933 10 0 59601 58500.00000 0 10504957.876 -22436395.147 6003649.098 10 0 59601 59400.00000 0 10650904.233 -22977696.055 2848053.349 10 0 59601 60300.00000 0 10586394.914 -23175059.624 -363012.439 10 0 59601 61200.00000 0 10359329.997 -23000717.445 -3566999.162 10 0 59601 62100.00000 0 10022940.093 -22439235.707 -6701431.038 10 0 59601 63000.00000 0 9633308.061 -21488301.856 -9705139.809 10 0 59601 63900.00000 0 9246775.632 -20158973.438 -12519476.661 10 0 59601 64800.00000 0 8917346.826 -18475376.609 -15089476.290 10 0 59601 65700.00000 0 8694200.402 -16473865.559 -17364948.454 10 0 59601 66600.00000 0 8619419.011 -14201677.498 -19301473.798 10 0 59601 67500.00000 0 8726033.376 -11715139.660 -20861283.124 10 0 59601 68400.00000 0 9036465.999 -9077504.028 -22014001.887 10 0 59601 69300.00000 0 9561441.481 -6356501.498 -22737244.826 10 0 59601 70200.00000 0 10299410.168 -3621718.893 -23017049.112 10 0 59601 71100.00000 0 11236509.532 -941909.438 -22848137.974 10 0 59601 72000.00000 0 12347064.446 1617650.162 -22234010.437 10 0 59601 72900.00000 0 13594604.388 3997645.557 -21186856.539 10 0 59601 73800.00000 0 14933353.566 6146950.224 -19727300.933 10 0 59601 74700.00000 0 16310129.904 8024498.699 -17883981.275 10 0 59601 75600.00000 0 17666571.756 9600731.231 -15692971.002 10 0 59601 76500.00000 0 18941597.609 10858551.923 -13197059.053 10 0 59601 77400.00000 0 20073994.554 11793763.081 -10444901.853 10 0 59601 78300.00000 0 21005026.354 12414960.820 -7490065.085 10 0 59601 79200.00000 0 21680951.534 12742899.484 -4389974.730 10 0 59601 80100.00000 0 22055346.191 12809354.590 -1204798.450 10 0 59601 81000.00000 0 22091134.742 12655534.699 2003720.682 10 0 59601 81900.00000 0 21762244.599 12330111.164 5173455.521 10 0 59601 82800.00000 0 21054816.536 11886950.016 8243088.416 10 0 59601 83700.00000 0 19967921.280 11382642.129 11153284.655 10 0 59601 84600.00000 0 18513753.210 10873935.600 13847824.094 10 0 59601 85500.00000 0 16717293.700 10415177.744 16274670.360 10 0 59602 0.00000 0 14615458.579 10055873.294 18386958.433 10 0 59602 900.00000 0 12255763.457 9838459.922 20143884.242 10 0 59602 1800.00000 0 9694564.349 9796393.653 21511477.969 10 0 59602 2700.00000 0 6994941.291 9952622.809 22463251.412 10 0 59602 3600.00000 0 4224313.327 10318514.352 22980705.173 10 0 59602 4500.00000 0 1451880.393 10893277.412 23053687.796 10 0 59602 5400.00000 0 -1254004.289 11663908.864 22680599.908 10 0 59602 6300.00000 0 -3828424.823 12605664.595 21868439.026 10 0 59602 7200.00000 0 -6212350.891 13683038.688 20632683.137 10 0 59602 8100.00000 0 -8354843.694 14851211.839 18997013.783 10 0 59602 9000.00000 0 -10214928.948 16057910.873 16992882.024 10 0 59602 9900.00000 0 -11763059.246 17245603.688 14658923.548 10 0 59602 10800.00000 0 -12982104.618 18353939.527 12040231.985 10 0 59602 11700.00000 0 -13867829.102 19322333.348 9187502.451 10 0 59602 12600.00000 0 -14428832.274 20092586.100 6156060.325 10 0 59602 13500.00000 0 -14685957.070 20611430.178 3004792.898 10 0 59602 14400.00000 0 -14671187.777 20832891.538 -204995.823 10 0 59602 15300.00000 0 -14426084.014 20720366.847 -3410784.664 10 0 59602 16200.00000 0 -13999816.673 20248325.503 -6550065.047 10 0 59602 17100.00000 0 -13446889.380 19403561.898 -9561575.641 10 0 59602 18000.00000 0 -12824642.936 18185942.369 -12386516.018 10 0 59602 18900.00000 0 -12190650.062 16608612.832 -14969713.672 10 0 59602 19800.00000 0 -11600112.721 14697656.391 -17260719.702 10 0 59602 20700.00000 0 -11103374.370 12491214.045 -19214809.862 10 0 59602 21600.00000 0 -10743654.497 10038104.797 -20793870.017 10 0 59602 22500.00000 0 -10555103.039 7396003.052 -21967147.655 10 0 59602 23400.00000 0 -10561258.252 4629250.302 -22711854.179 10 0 59602 24300.00000 0 -10773973.891 1806393.479 -23013606.208 10 0 59602 25200.00000 0 -11192861.092 -1002446.188 -22866697.633 10 0 59602 26100.00000 0 -11805267.991 -3728263.037 -22274197.911 10 0 59602 27000.00000 0 -12586796.945 -6305802.898 -21247875.766 10 0 59602 27900.00000 0 -13502336.157 -8676035.179 -19807951.049 10 0 59602 28800.00000 0 -14507560.662 -10788358.591 -17982680.978 10 0 59602 29700.00000 0 -15550837.816 -12602449.864 -15807790.240 10 0 59602 30600.00000 0 -16575455.591 -14089680.274 -13325757.359 10 0 59602 31500.00000 0 -17522078.578 -15234043.216 -10584972.523 10 0 59602 32400.00000 0 -18331327.514 -16032557.005 -7638784.305 10 0 59602 33300.00000 0 -18946373.334 -16495129.136 -4544454.666 10 0 59602 34200.00000 0 -19315436.638 -16643890.663 -1362043.254 10 0 59602 35100.00000 0 -19394087.930 -16512031.593 1846757.057 10 0 59602 36000.00000 0 -19147252.790 -16142188.507 5019810.777 10 0 59602 36900.00000 0 -18550838.682 -15584453.936 8095733.743 10 0 59602 37800.00000 0 -17592916.357 -14894092.294 11015068.002 10 0 59602 38700.00000 0 -16274407.103 -14129058.666 13721415.926 10 0 59602 39600.00000 0 -14609247.787 -13347424.403 16162512.860 10 0 59602 40500.00000 0 -12624027.005 -12604816.812 18291219.222 10 0 59602 41400.00000 0 -10357107.139 -11951979.119 20066414.570 10 0 59602 42300.00000 0 -7857267.962 -11432551.604 21453777.956 10 0 59602 43200.00000 0 -5181926.495 -11081165.485 22426441.057 10 0 59602 44100.00000 0 -2395004.976 -10921928.338 22965502.661 10 0 59602 45000.00000 0 435467.072 -10967363.839 23060395.294 10 0 59602 45900.00000 0 3239919.966 -11217850.203 22709097.169 10 0 59602 46800.00000 0 5949876.442 -11661581.524 21918184.928 10 0 59602 47700.00000 0 8500542.886 -12275054.916 20702725.214 10 0 59602 48600.00000 0 10833253.698 -13024064.912 19086005.622 10 0 59602 49500.00000 0 12897668.630 -13865165.569 17099108.276 10 0 59602 50400.00000 0 14653632.265 -14747541.138 14780332.162 10 0 59602 51300.00000 0 16072618.180 -15615208.717 12174473.124 10 0 59602 52200.00000 0 17138696.887 -16409461.777 9331973.427 10 0 59602 53100.00000 0 17848985.891 -17071452.503 6307955.731 10 0 59602 54000.00000 0 18213561.808 -17544804.078 3161159.026 10 0 59602 54900.00000 0 18254836.939 -17778141.850 -47203.329 10 0 59602 55800.00000 0 18006425.539 -17727434.815 -3254641.059 10 0 59602 56700.00000 0 17511547.080 -17358046.185 -6398615.850 10 0 59602 57600.00000 0 16821033.945 -16646403.678 -9417776.379 10 0 59602 58500.00000 0 15991028.416 -15581216.069 -12253173.615 10 0 59602 59400.00000 0 15080467.618 -14164181.907 -14849430.733 10 0 59602 60300.00000 0 14148464.473 -12410158.073 -17155842.895 10 0 59602 61200.00000 0 13251697.408 -10346779.271 -19127383.459 10 0 59602 62100.00000 0 12441921.173 -8013543.281 -20725595.579 10 0 59602 63000.00000 0 11763705.732 -5460399.825 -21919350.679 10 0 59602 63900.00000 0 11252500.134 -2745902.412 -22685458.368 10 0 59602 64800.00000 0 10933103.874 64998.972 -23009115.842 10 0 59602 65700.00000 0 10818610.393 2903431.237 -22884188.382 10 0 59602 66600.00000 0 10909866.796 5699233.402 -22313316.187 10 0 59602 67500.00000 0 11195471.440 8383643.060 -21307846.580 10 0 59602 68400.00000 0 11652307.964 10891921.773 -19887594.135 10 0 59602 69300.00000 0 12246591.376 13165810.065 -18080434.793 10 0 59602 70200.00000 0 12935380.142 15155710.499 -15921743.296 10 0 59602 71100.00000 0 13668488.643 16822509.225 -13453686.200 10 0 59602 72000.00000 0 14390717.695 18138961.906 -10724385.556 10 0 59602 72900.00000 0 15044307.815 19090588.671 -7786970.593 10 0 59602 73800.00000 0 15571510.967 19676043.496 -4698536.709 10 0 59602 74700.00000 0 15917172.032 19906945.420 -1519032.733 10 0 59602 75600.00000 0 16031211.382 19807181.604 1689901.637 10 0 59602 76500.00000 0 15870904.496 19411713.899 4866125.614 10 0 59602 77400.00000 0 15402863.664 18764941.218 7948191.575 10 0 59602 78300.00000 0 14604639.362 17918687.721 10876521.315 10 0 59602 79200.00000 0 13465874.914 16929901.901 13594542.546 10 0 59602 80100.00000 0 11988966.878 15858163.262 16049764.983 10 0 59602 81000.00000 0 10189203.751 14763100.421 18194776.755 10 0 59602 81900.00000 0 8094376.982 13701827.714 19988143.637 10 0 59602 82800.00000 0 5743879.752 12726506.195 21395195.307 10 0 59602 83700.00000 0 3187329.513 11882129.495 22388685.001 10 0 59602 84600.00000 0 482769.504 11204625.688 22949311.050 10 0 59602 85500.00000 0 -2305478.499 10719353.427 23066090.965 10 0 59603 0.00000 0 -5109223.678 10440054.624 22736581.174 10 0 59603 900.00000 0 -7858982.327 10368307.324 21966937.519 10 0 59603 1800.00000 0 -10486612.672 10493502.671 20771814.950 10 0 59603 2700.00000 0 -12927906.324 10793347.632 19174106.250 10 0 59603 3600.00000 0 -15125026.677 11234874.511 17204523.275 10 0 59603 4500.00000 0 -17028695.243 11775916.629 14901026.530 10 0 59603 5400.00000 0 -18600034.905 12366990.061 12308111.945 10 0 59603 6300.00000 0 -19811992.683 12953503.875 9475966.526 10 0 59603 7200.00000 0 -20650281.460 13478206.786 6459507.613 10 0 59603 8100.00000 0 -21113799.848 13883767.370 3317323.185 10 0 59603 9000.00000 0 -21214511.108 14115378.393 110533.168 10 0 59603 9900.00000 0 -20976784.777 14123273.870 -3098405.873 10 0 59603 10800.00000 0 -20436227.825 13865050.393 -6246928.711 10 0 59603 11700.00000 0 -19638054.150 13307691.973 -9273596.835 10 0 59603 12600.00000 0 -18635061.433 12429209.899 -12119315.364 10 0 59603 13500.00000 0 -17485301.620 11219825.414 -14728505.818 10 0 59603 14400.00000 0 -16249544.803 9682642.545 -17050209.897 10 0 59603 15300.00000 0 -14988645.332 7833780.530 -19039100.817 10 0 59603 16200.00000 0 -13760923.271 5701958.567 -20656380.979 10 0 59603 17100.00000 0 -12619673.465 3327549.331 -21870547.360 10 0 59603 18000.00000 0 -11610908.761 761140.698 -22658009.021 10 0 59603 18900.00000 0 -10771433.439 -1938333.897 -23003544.608 10 0 59603 19800.00000 0 -10127328.323 -4705817.667 -22900591.248 10 0 59603 20700.00000 0 -9692910.978 -7472611.494 -22351359.938 10 0 59603 21600.00000 0 -9470213.695 -10169009.474 -21366776.244 10 0 59603 22500.00000 0 -9448999.591 -12726978.463 -19966248.713 10 0 59603 23400.00000 0 -9607314.093 -15082769.629 -18177270.885 10 0 59603 24300.00000 0 -9912546.256 -17179353.482 -16034866.099 10 0 59603 25200.00000 0 -10322952.882 -18968577.718 -13580887.213 10 0 59603 26100.00000 0 -10789579.009 -20412959.268 -10863186.191 10 0 59603 27000.00000 0 -11258491.982 -21487037.750 -7934670.813 10 0 59603 27900.00000 0 -11673233.468 -22178236.194 -4852267.709 10 0 59603 28800.00000 0 -11977385.161 -22487195.655 -1675812.600 10 0 59603 29700.00000 0 -12117139.637 -22427572.414 1533110.327 10 0 59603 30600.00000 0 -12043768.148 -22025308.852 4712357.432 10 0 59603 31500.00000 0 -11715882.018 -21317410.697 7800420.121 10 0 59603 32400.00000 0 -11101393.235 -20350283.567 10737602.452 10 0 59603 33300.00000 0 -10179092.784 -19177699.551 13467160.062 10 0 59603 34200.00000 0 -8939781.125 -17858479.169 15936379.581 10 0 59603 35100.00000 0 -7386903.942 -16453985.531 18097579.295 10 0 59603 36000.00000 0 -5536666.670 -15025534.608 19909013.472 10 0 59603 36900.00000 0 -3417622.323 -13631828.378 21335664.450 10 0 59603 37800.00000 0 -1069748.601 -12326516.442 22349908.759 10 0 59603 38700.00000 0 1456949.195 -11155986.210 22932045.674 10 0 59603 39600.00000 0 4104253.716 -10157472.402 23070678.733 10 0 59603 40500.00000 0 6807896.961 -9357563.624 22762943.162 10 0 59603 41400.00000 0 9499980.775 -8771167.741 22014574.449 10 0 59603 42300.00000 0 12111558.736 -8400979.339 20839815.813 10 0 59603 43200.00000 0 14575274.858 -8237472.085 19261164.889 10 0 59603 44100.00000 0 16827951.455 -8259417.494 17308962.573 10 0 59603 45000.00000 0 18813019.757 -8434909.846 15020829.876 10 0 59603 45900.00000 0 20482692.616 -8722855.841 12440961.424 10 0 59603 46800.00000 0 21799788.348 -9074867.889 9619287.195 10 0 59603 47700.00000 0 22739128.540 -9437482.429 6610517.066 10 0 59603 48600.00000 0 23288449.848 -9754610.279 3473085.484 10 0 59603 49500.00000 0 23448789.880 -9970115.344 268016.117 10 0 59603 50400.00000 0 23234329.197 -10030411.745 -2942271.244 10 0 59603 51300.00000 0 22671694.725 -9886967.754 -6095187.641 10 0 59603 52200.00000 0 21798752.920 -9498608.255 -9129210.580 10 0 59603 53100.00000 0 20662943.246 -8833515.556 -11985102.447 10 0 59603 54000.00000 0 19319222.579 -7870840.972 -14607086.044 10 0 59603 54900.00000 0 17827708.160 -6601856.220 -16943952.338 10 0 59603 55800.00000 0 16251119.965 -5030593.499 -18950076.868 10 0 59603 56700.00000 0 14652132.000 -3173945.236 -20586323.467 10 0 59603 57600.00000 0 13090745.860 -1061217.856 -21820816.547 10 0 59603 58500.00000 0 11621798.725 1266842.396 -22629566.175 10 0 59603 59400.00000 0 10292711.736 3759510.860 -22996933.640 10 0 59603 60300.00000 0 9141573.958 6357971.584 -22915928.743 10 0 59603 61200.00000 0 8195642.301 8997550.467 -22388333.712 10 0 59603 62100.00000 0 7470319.514 11610200.314 -21424652.402 10 0 59603 63000.00000 0 6968651.590 14127133.341 -20043886.979 10 0 59603 63900.00000 0 6681363.600 16481490.661 -18273147.850 10 0 59603 64800.00000 0 6587429.913 18610937.314 -16147105.835 10 0 59603 65700.00000 0 6655152.116 20460074.974 -13707298.598 10 0 59603 66600.00000 0 6843696.648 21982572.475 -11001306.163 10 0 59603 67500.00000 0 7105024.959 23142926.724 -8081812.654 10 0 59603 68400.00000 0 7386132.870 23917782.344 -5005573.403 10 0 59603 69300.00000 0 7631503.268 24296757.118 -1832308.238 10 0 59603 70200.00000 0 7785667.836 24282741.113 1376457.161 10 0 59603 71100.00000 0 7795769.500 23891659.477 4558579.377 10 0 59603 72000.00000 0 7614017.862 23151710.957 7652491.970 10 0 59603 72900.00000 0 7199934.776 22102115.799 10598384.355 10 0 59603 73800.00000 0 6522296.397 20791426.629 13339343.032 10 0 59603 74700.00000 0 5560690.904 19275473.462 15822434.307 10 0 59603 75600.00000 0 4306627.203 17615028.747 17999709.201 10 0 59603 76500.00000 0 2764148.357 15873289.133 19829112.820 10 0 59603 77400.00000 0 949923.899 14113277.809 21275282.232 10 0 59603 78300.00000 0 -1107183.783 12395274.092 22310219.052 10 0 59603 79200.00000 0 -3367062.535 10774375.463 22913824.940 10 0 59603 80100.00000 0 -5779765.852 9298291.917 23074290.522 10 0 59603 81000.00000 0 -8287344.396 8005462.956 22788330.484 10 0 59603 81900.00000 0 -10826020.487 6923574.558 22061260.023 10 0 59603 82800.00000 0 -13328618.087 6068537.449 20906910.239 10 0 59603 83700.00000 0 -15727150.081 5443969.344 19347382.658 10 0 59603 84600.00000 0 -17955457.598 5041203.398 17412645.739 10 0 59603 85500.00000 0 -19951793.063 4839823.614 15139979.019 10 0 59604 0.00000 0 -21661240.109 4808706.048 12573273.672 10 0 59604 900.00000 0 -23037870.205 4907523.473 9762199.461 10 0 59604 1800.00000 0 -24046542.826 5088651.359 6761256.087 10 0 59604 2700.00000 0 -24664275.465 5299395.484 3628721.401 10 0 59604 3600.00000 0 -24881121.836 5484447.321 425519.721 10 0 59604 4500.00000 0 -24700520.372 5588462.741 -2785969.012 10 0 59604 5400.00000 0 -24139096.359 5558653.590 -5943135.122 10 0 59604 6300.00000 0 -23225924.545 5347280.365 -8984375.050 10 0 59604 7200.00000 0 -22001282.384 4913937.974 -11850311.251 10 0 59604 8100.00000 0 -20514946.204 4227534.939 -14484970.450 10 0 59604 9000.00000 0 -18824102.497 3267879.469 -16836895.303 10 0 59604 9900.00000 0 -16990963.372 2026802.690 -18860165.789 10 0 59604 10800.00000 0 -15080187.970 508769.346 -20515308.930 10 0 59604 11700.00000 0 -13156219.938 -1269051.534 -21770077.904 10 0 59604 12600.00000 0 -11280654.496 -3277260.017 -22600084.653 10 0 59604 13500.00000 0 -9509746.928 -5475223.332 -22989273.504 10 0 59604 14400.00000 0 -7892167.814 -7812556.635 -22930226.862 10 0 59604 15300.00000 0 -6467099.310 -10231023.917 -22424297.685 10 0 59604 16200.00000 0 -5262751.643 -12666778.688 -21481567.214 10 0 59604 17100.00000 0 -4295360.636 -15052849.973 -20120629.990 10 0 59604 18000.00000 0 -3568706.303 -17321768.884 -18368211.743 10 0 59604 18900.00000 0 -3074170.149 -19408225.648 -16258628.993 10 0 59604 19800.00000 0 -2791325.885 -21251646.049 -13833102.260 10 0 59604 20700.00000 0 -2689035.788 -22798580.025 -11138937.554 10 0 59604 21600.00000 0 -2727003.727 -24004803.608 -8228593.213 10 0 59604 22500.00000 0 -2857716.961 -24837047.750 -5158651.120 10 0 59604 23400.00000 0 -3028692.894 -25274283.505 -1988713.075 10 0 59604 24300.00000 0 -3184934.638 -25308511.945 1219755.886 10 0 59604 25200.00000 0 -3271491.073 -24945027.926 4404614.716 10 0 59604 26100.00000 0 -3236013.310 -24202148.649 7504241.273 10 0 59604 27000.00000 0 -3031200.202 -23110420.297 10458712.488 10 0 59604 27900.00000 0 -2617030.544 -21711337.048 13210947.902 10 0 59604 28800.00000 0 -1962688.975 -20055626.751 15707795.656 10 0 59604 29700.00000 0 -1048105.464 -18201175.024 17901041.578 10 0 59604 30600.00000 0 134955.659 -16210673.701 19748323.553 10 0 59604 31500.00000 0 1582302.601 -14149090.575 21213935.145 10 0 59604 32400.00000 0 3277244.274 -12081064.037 22269504.550 10 0 59604 33300.00000 0 5191043.924 -10068329.150 22894537.027 10 0 59604 34200.00000 0 7283881.076 -8167280.263 23076811.169 10 0 59604 35100.00000 0 9506284.145 -6426769.628 22812621.681 10 0 59604 36000.00000 0 11800976.887 -4886232.060 22106863.687 10 0 59604 36900.00000 0 14105064.775 -3574212.710 20972956.058 10 0 59604 37800.00000 0 16352473.216 -2507358.789 19432603.799 10 0 59604 38700.00000 0 18476538.678 -1689917.424 17515402.202 10 0 59604 39600.00000 0 20412646.626 -1113761.310 15258288.295 10 0 59604 40500.00000 0 22100807.504 -758942.084 12704847.958 10 0 59604 41400.00000 0 23488063.475 -594749.399 9904489.996 10 0 59604 42300.00000 0 24530624.719 -581232.332 6911501.471 10 0 59604 43200.00000 0 25195644.554 -671119.885 3784001.315 10 0 59604 44100.00000 0 25462557.060 -812059.902 582811.873 10 0 59604 45000.00000 0 25323918.853 -949081.526 -2629729.582 10 0 59604 45900.00000 0 24785717.441 -1027176.010 -5790995.616 10 0 59604 46800.00000 0 23867131.219 -993884.972 -8839304.577 10 0 59604 47700.00000 0 22599749.718 -801784.229 -11715141.875 10 0 59604 48600.00000 0 21026286.105 -410755.408 -14362340.883 10 0 59604 49500.00000 0 19198835.948 210053.662 -16729198.434 10 0 59604 50400.00000 0 17176756.054 1080665.347 -18769501.205 10 0 59604 51300.00000 0 15024253.625 2209173.920 -20443441.401 10 0 59604 52200.00000 0 12807788.372 3591160.897 -21718402.711 10 0 59604 53100.00000 0 10593398.234 5209649.920 -22569600.444 10 0 59604 54000.00000 0 8444062.132 7035603.872 -22980563.182 10 0 59604 54900.00000 0 6417211.275 9028943.431 -22943446.860 10 0 59604 55800.00000 0 4562493.651 11140043.927 -22459175.760 10 0 59604 56700.00000 0 2919884.951 13311647.009 -21537408.746 10 0 59604 57600.00000 0 1518223.919 15481106.171 -20196332.592 10 0 59604 58500.00000 0 374231.703 17582871.132 -18462287.808 10 0 59604 59400.00000 0 -507946.179 19551106.432 -16369235.682 10 0 59604 60300.00000 0 -1136658.935 21322334.239 -13958078.261 10 0 59604 61200.00000 0 -1532137.122 22837990.752 -11275845.844 10 0 59604 62100.00000 0 -1725375.742 24046789.725 -8374768.937 10 0 59604 63000.00000 0 -1756563.686 24906795.154 -5311253.614 10 0 59604 63900.00000 0 -1673128.119 25387117.693 -2144781.007 10 0 59604 64800.00000 0 -1527478.159 25469165.499 1063247.340 10 0 59604 65700.00000 0 -1374544.207 25147398.965 4250695.713 10 0 59604 66600.00000 0 -1269217.278 24429559.733 7355889.318 10 0 59604 67500.00000 0 -1263796.225 23336366.012 10318795.655 10 0 59604 68400.00000 0 -1405549.910 21900688.120 13082170.277 10 0 59604 69300.00000 0 -1734496.076 20166239.712 15592646.037 10 0 59604 70200.00000 0 -2281489.400 18185839.327 17801746.293 10 0 59604 71100.00000 0 -3066698.212 16019314.354 19666804.240 10 0 59604 72000.00000 0 -4098533.180 13731133.704 21151772.232 10 0 59604 72900.00000 0 -5373072.920 11387865.972 22227907.065 10 0 59604 73800.00000 0 -6874011.202 9055566.759 22874319.290 10 0 59604 74700.00000 0 -8573129.267 6797201.617 23078376.766 10 0 59604 75600.00000 0 -10431275.545 4670209.495 22835955.044 10 0 59604 76500.00000 0 -12399814.452 2724305.975 22151529.496 10 0 59604 77400.00000 0 -14422486.647 999616.211 21038106.508 10 0 59604 78300.00000 0 -16437606.128 -474785.730 19516993.713 10 0 59604 79200.00000 0 -18380505.271 -1681870.611 17617411.792 10 0 59604 80100.00000 0 -20186127.984 -2617139.097 15375953.258 10 0 59604 81000.00000 0 -21791664.228 -3288577.195 12835896.442 10 0 59604 81900.00000 0 -23139116.480 -3716082.919 10046385.827 10 0 59604 82800.00000 0 -24177690.474 -3930387.117 7061492.864 10 0 59604 83700.00000 0 -24865908.950 -3971512.938 3939174.194 10 0 59604 84600.00000 0 -25173357.987 -3886838.307 740146.745 10 0 59604 85500.00000 0 -25081990.258 -3728843.143 -2473298.328 99